sat.trackr.live / text

‹ back to catalog

ION SCV-020

NORAD 64545 · 2025-135T

PAYLOAD ACTIVE UNKNOWN

§ Identity

Operator
Country
IT
Launch date
2025-06-23
Launch site
AFWTR
Launch vehicle
Mass (kg)
RCS (m²)

External: N2YO · Heavens-Above · Gunter

§ Orbital elements

Epoch: 2026-09-21T20:09:04.908096Z

Period
94.76 min
Inclination
97.4688°
Eccentricity
0.0008071
Mean motion
15.19707205 rev/d
Perigee alt
501.2 km
Apogee alt
512.3 km
Semi-major
6,884.9 km
B*
9.4424e-5
RAAN
18.6701°
Arg perigee
164.5245°
Mean anomaly
195.6238°
Rev number
6,952

§ Raw data

ION SCV-0201 64545U 25135T   26264.83964014  .00001949  00000+0  94424-4 0  99942 64545  97.4688  18.6701 0008071 164.5245 195.6238 15.19707205 69527

JSON: /api/v1/satellites/64545 · /tle

For live sub-satellite position, see the globe view (requires WebGL).

§ Visibility from observer

Set your observer location to see the next 7 days of passes ≥ 10°. The values pass through the URL so the page stays shareable.

No JS? Fill the form by hand. The geolocation button needs JavaScript.

§ Radio — SatNOGS DB

ModeDescriptionDownlinkUplink
FSK AX.100 Mode 5 Mode U - FSK1k2 AX.100 401.415 MHz
FM S-band telemetry 2.256 GHz

2 transmitters · refreshed weekly from db.satnogs.org